STARLINK-2535, 48295

Orbit data source: Space-Track

STARLINK-2535, 48295 is a payload satellite owned by SpaceX/Seattle (US) in LEO that was launched on Thu, 29 Apr 2021 UTC via an FALCON 9 launch vehicle from the Air Force Eastern Test Range (AFETR). Payload-class satellites include a variety of spacecraft equipped with specific instruments for various scientific and technological missions. These include communications satellites like Starlink; space stations such as the ISS; scientific satellites like the Hubble; Earth observation satellites from companies like Planet Labs, Umbra, and HawkEye 360; GPS; miniature CubeSats for education and research; and military/defense satellites.

Loading next visibility...
Identifier
48295, 2021-036V
Orbit
LEO
Country
Flag of USUS
Related business
Manufacturer
SpaceX/Seattle
Mission
Operational Commercial Communications
Bus & Motor
STARLINK, Unknown motor
Mass
260 kg wet, ~248 kg dry
Launch date (UTC)
2021-04-29 (5 years ago)
Launch vehicle
FALCON 9
Launch site
Air Force Eastern Test Range (AFETR)
Object type
Payload
Rocket body
Debris
Shape & HBR
Box + 1 Pan, 10.1 m
Radar Cross Section
13.562 m², Large (>1 m²)

Expand to show TLE details & history
Last TLE update: 5 hours ago

TLE from 5 hours ago
0 STARLINK-2535
1 48295U 21036V   26037.50002314  .00049572  00000-0  17214-2 0  9997
2 48295  53.1574 220.3918 0001113 105.7682 197.0360 15.29306372  5813
Epoch: 2026-02-06T12:00Z
TLE epoch observation values (Epoch: 2026-02-06T12:00:01.999Z)
Latitude
-42.47371°
Longitude
-139.26544°
Altitude
492.804 km
Speed
7.618 km/s
True Right ascension
11h 49m 31s
True Declination
-42° 17' 45"
Sunlit
Object was in full shadow at epoch
Visualization orbit readout
Latitude
Unknown
Longitude
Unknown
Altitude
Unknown
Speed
Unknown
Apparent Right ascension
Unknown
Apparent Declination
Unknown
Sunlit
N/A
Visualization observer readout
Local Sidereal Time
18:53:41
Azimuth
Unknown
Elevation
Unknown
Doppler factor
Unknown
Orbital elements
Apogee altitude
478.904 km
Perigee altitude
477.378 km
Semi-major axis
6,856.278 km
Eccentricity
0.00011
Inclination
53.1574°
RAAN
220.3918°
Arg. of periapsis
105.7682°
True anomaly
197.03226°
Mean anomaly
197.036°
Eccentric anomaly
197.03413°
Mean motion
3.82305 °/min
Orbital period
94.17 mins
BSTAR
0.0017214
Loading maneuver chart data...
Computing Atmospheric mass density...
Loading historical data...
Loading historical data...
Loading historical data...
Loading historical data...
Loading historical data...
Loading historical data...
Loading historical data...

Documentation

Showing up to 5 results
|